Precipitable_Water
0.29 0.19 0.16 0.14 0.17 0.23 0.30 0.36 0.35 0.35 0.38 0.41 0.40 0.38 0.37 0.37 0.37 0.40 0.40 0.42 0.43 0.50 0.52 0.56 0.59 0.61 0.69 0.76 0.86 0.96 1.05 1.03 1.02 1.02 1.03 1.05 1.07 1.10 1.08 0.99 0.84 0.74 0.71 0.81 0.88 0.97 1.01 1.06 1.13 1.17 1.21 1.24 1.29 1.32 1.32 1.28 1.24 1.23 1.21 1.22 1.18 1.27 1.33 1.30 1.27 1.27 1.27 1.23 1.27 1.32 1.31 1.26 1.34 1.36 1.39 1.40 1.42 1.47 1.51 1.55 1.59 1.62 1.65 1.68 1.71 1.73
0.25 0.18 0.16 0.18 0.20 0.23 0.28 0.33 0.35 0.33 0.34 0.35 0.37 0.37 0.37 0.36 0.33 0.38 0.38 0.41 0.42 0.40 0.44 0.57 0.60 0.62 0.67 0.77 0.85 0.97 1.00 0.95 0.96 0.98 1.00 1.00 1.04 1.06 1.02 0.98 0.89 0.72 0.75 0.86 0.88 0.95 1.00 1.03 1.07 1.12 1.16 1.21 1.20 1.24 1.29 1.26 1.24 1.22 1.22 1.17 1.20 1.28 1.30 1.29 1.28 1.27 1.27 1.26 1.23 1.22 1.23 1.27 1.31 1.32 1.30 1.29 1.36 1.39 1.49 1.56 1.58 1.61 1.63 1.65 1.68 1.71
0.17 0.15 0.17 0.21 0.23 0.24 0.27 0.31 0.33 0.31 0.29 0.31 0.33 0.35 0.36 0.35 0.35 0.37 0.38 0.40 0.40 0.38 0.38 0.54 0.57 0.63 0.73 0.78 0.87 0.91 0.91 0.93 0.98 0.97 0.95 0.96 0.99 1.05 1.07 1.04 0.96 0.85 0.75 0.79 0.79 0.83 0.90 0.95 1.00 1.06 1.09 1.12 1.12 1.14 1.17 1.21 1.27 1.29 1.25 1.21 1.21 1.23 1.25 1.27 1.31 1.29 1.22 1.27 1.31 1.30 1.30 1.30 1.29 1.39 1.41 1.41 1.44 1.48 1.46 1.51 1.56 1.60 1.62 1.63 1.65 1.70
0.14 0.14 0.19 0.23 0.23 0.22 0.22 0.27 0.30 0.30 0.29 0.27 0.28 0.30 0.30 0.35 0.33 0.30 0.36 0.39 0.40 0.37 0.37 0.42 0.52 0.63 0.76 0.86 0.86 0.92 0.92 0.94 1.00 1.02 1.01 1.01 0.97 0.99 1.02 1.06 1.02 0.95 0.81 0.71 0.72 0.76 0.81 0.88 0.92 0.98 1.02 1.05 1.11 1.14 1.17 1.24 1.25 1.27 1.25 1.23 1.21 1.20 1.23 1.26 1.29 1.28 1.30 1.32 1.36 1.40 1.39 1.40 1.36 1.31 1.39 1.44 1.48 1.47 1.47 1.43 1.51 1.56 1.58 1.62 1.65 1.72
0.13 0.17 0.20 0.21 0.22 0.21 0.19 0.21 0.25 0.25 0.23 0.25 0.26 0.27 0.30 0.34 0.34 0.34 0.35 0.37 0.38 0.37 0.39 0.40 0.43 0.53 0.69 0.76 0.85 0.95 1.01 1.00 1.02 1.06 1.06 1.07 1.05 1.03 1.06 1.09 1.08 0.99 0.92 0.78 0.72 0.73 0.75 0.79 0.84 0.86 0.90 0.99 1.04 1.07 1.10 1.13 1.17 1.19 1.17 1.19 1.21 1.22 1.23 1.24 1.26 1.28 1.32 1.35 1.35 1.37 1.40 1.42 1.39 1.38 1.35 1.33 1.32 1.37 1.40 1.42 1.43 1.46 1.55 1.59 1.65 1.72
0.17 0.20 0.23 0.19 0.19 0.20 0.19 0.18 0.20 0.22 0.20 0.22 0.25 0.25 0.28 0.35 0.36 0.35 0.36 0.34 0.32 0.31 0.37 0.37 0.32 0.38 0.55 0.68 0.72 0.80 0.92 0.94 1.00 0.98 0.97 0.99 1.03 1.08 1.05 1.05 1.11 1.11 1.05 0.91 0.78 0.70 0.72 0.72 0.74 0.80 0.87 0.92 0.96 1.00 1.04 1.09 1.11 1.12 1.16 1.22 1.27 1.29 1.30 1.27 1.26 1.28 1.29 1.27 1.24 1.23 1.18 1.13 1.13 1.10 1.11 1.05 1.07 1.20 1.27 1.29 1.43 1.51 1.54 1.56 1.62 1.70
0.17 0.22 0.22 0.20 0.19 0.18 0.19 0.18 0.20 0.22 0.18 0.18 0.17 0.25 0.26 0.34 0.38 0.36 0.35 0.33 0.28 0.27 0.34 0.42 0.31 0.31 0.53 0.57 0.70 0.78 0.82 0.83 0.92 0.92 0.93 0.97 1.01 1.02 1.02 1.04 1.06 1.07 1.08 1.07 0.98 0.87 0.77 0.74 0.74 0.77 0.81 0.85 0.88 0.92 1.00 1.06 1.10 1.14 1.17 1.22 1.25 1.26 1.27 1.29 1.29 1.31 1.29 1.24 1.24 1.18 1.13 1.11 1.07 1.02 1.06 1.15 1.23 1.25 1.33 1.42 1.43 1.47 1.54 1.55 1.57 1.64
0.21 0.20 0.22 0.21 0.21 0.20 0.17 0.15 0.18 0.20 0.18 0.14 0.17 0.23 0.24 0.30 0.35 0.36 0.35 0.33 0.30 0.35 0.37 0.36 0.41 0.37 0.40 0.52 0.67 0.74 0.75 0.77 0.82 0.84 0.89 0.94 0.97 0.98 0.99 1.02 1.03 1.06 1.08 1.05 1.04 1.01 0.94 0.89 0.81 0.76 0.79 0.83 0.83 0.85 0.95 1.00 1.06 1.10 1.13 1.16 1.19 1.24 1.27 1.30 1.31 1.30 1.28 1.19 1.18 1.17 1.15 1.13 1.09 1.05 1.03 1.13 1.19 1.27 1.34 1.38 1.41 1.47 1.51 1.57 1.60 1.61
0.20 0.19 0.20 0.20 0.20 0.20 0.17 0.16 0.17 0.19 0.17 0.14 0.18 0.20 0.20 0.26 0.31 0.35 0.35 0.33 0.32 0.32 0.28 0.31 0.34 0.31 0.34 0.51 0.66 0.70 0.68 0.73 0.75 0.77 0.82 0.88 0.92 0.94 0.96 0.98 1.02 1.04 1.07 1.07 1.03 1.00 0.95 0.93 0.95 0.90 0.84 0.82 0.83 0.89 0.90 0.92 0.98 1.05 1.11 1.14 1.17 1.19 1.23 1.28 1.32 1.28 1.25 1.22 1.19 1.16 1.15 1.11 1.13 1.13 1.13 1.20 1.25 1.25 1.29 1.29 1.39 1.42 1.48 1.55 1.61 1.64
0.23 0.24 0.23 0.22 0.21 0.18 0.20 0.22 0.20 0.18 0.14 0.16 0.18 0.18 0.18 0.23 0.30 0.32 0.31 0.31 0.30 0.28 0.24 0.29 0.33 0.27 0.27 0.38 0.54 0.64 0.62 0.63 0.67 0.73 0.78 0.82 0.85 0.89 0.92 0.95 1.00 1.05 1.08 1.09 1.05 1.03 1.02 0.98 0.97 0.98 0.94 0.90 0.88 0.90 0.91 0.92 0.95 1.00 1.06 1.10 1.14 1.15 1.20 1.24 1.28 1.30 1.26 1.23 1.22 1.18 1.16 1.11 1.09 1.14 1.16 1.20 1.19 1.20 1.23 1.20 1.26 1.34 1.41 1.49 1.56 1.61
0.25 0.31 0.32 0.28 0.23 0.22 0.22 0.23 0.23 0.21 0.19 0.17 0.16 0.14 0.14 0.16 0.24 0.30 0.30 0.30 0.28 0.23 0.23 0.28 0.32 0.30 0.23 0.30 0.38 0.47 0.53 0.61 0.67 0.72 0.76 0.81 0.85 0.88 0.92 0.93 0.95 1.00 1.05 1.06 1.06 1.04 1.04 1.04 1.01 1.01 0.97 0.95 0.99 1.01 0.99 0.97 0.97 0.99 1.01 1.04 1.06 1.10 1.18 1.23 1.24 1.26 1.24 1.25 1.23 1.16 1.15 1.13 1.10 1.12 1.13 1.12 1.13 1.18 1.19 1.15 1.18 1.25 1.32 1.44 1.51 1.57
0.25 0.26 0.26 0.29 0.31 0.29 0.26 0.22 0.24 0.24 0.22 0.20 0.17 0.14 0.14 0.12 0.18 0.24 0.26 0.28 0.23 0.19 0.23 0.27 0.29 0.31 0.21 0.22 0.34 0.41 0.52 0.61 0.64 0.65 0.69 0.73 0.77 0.81 0.86 0.90 0.93 0.96 1.00 1.05 1.06 1.04 1.04 1.04 1.04 1.05 1.01 1.00 1.01 1.04 1.05 1.06 1.07 1.06 1.04 1.04 1.03 1.08 1.15 1.21 1.24 1.26 1.25 1.26 1.25 1.22 1.18 1.14 1.15 1.15 1.13 1.09 1.06 1.11 1.10 1.10 1.11 1.19 1.28 1.39 1.48 1.52
0.22 0.21 0.24 0.26 0.30 0.28 0.25 0.21 0.20 0.22 0.22 0.21 0.20 0.17 0.12 0.10 0.11 0.12 0.18 0.18 0.19 0.16 0.21 0.26 0.29 0.27 0.23 0.23 0.30 0.38 0.45 0.57 0.65 0.68 0.69 0.71 0.72 0.76 0.81 0.86 0.90 0.93 0.97 1.01 1.03 1.05 1.04 1.00 0.98 0.99 1.00 1.04 1.05 1.06 1.10 1.11 1.12 1.14 1.13 1.11 1.06 1.06 1.13 1.18 1.24 1.24 1.25 1.26 1.24 1.22 1.20 1.17 1.18 1.18 1.17 1.13 1.09 1.13 1.11 1.11 1.10 1.14 1.21 1.33 1.36 1.39
0.19 0.23 0.23 0.22 0.25 0.28 0.27 0.20 0.18 0.17 0.19 0.19 0.17 0.16 0.13 0.09 0.08 0.08 0.11 0.15 0.16 0.19 0.22 0.24 0.28 0.23 0.26 0.27 0.31 0.33 0.41 0.46 0.58 0.70 0.75 0.72 0.70 0.73 0.77 0.82 0.87 0.91 0.94 0.98 1.02 1.04 1.05 1.02 0.99 0.98 0.99 1.02 1.06 1.11 1.15 1.18 1.19 1.20 1.20 1.20 1.17 1.15 1.20 1.23 1.24 1.25 1.24 1.24 1.24 1.25 1.23 1.20 1.19 1.17 1.18 1.16 1.12 1.13 1.14 1.13 1.11 1.15 1.21 1.25 1.26 1.29
0.15 0.15 0.18 0.20 0.18 0.25 0.25 0.22 0.20 0.17 0.17 0.17 0.19 0.17 0.14 0.12 0.09 0.07 0.09 0.10 0.12 0.14 0.18 0.25 0.23 0.21 0.21 0.22 0.31 0.34 0.39 0.44 0.50 0.63 0.73 0.73 0.72 0.76 0.79 0.82 0.86 0.89 0.92 0.97 1.01 1.03 1.05 1.07 1.05 1.01 1.00 1.03 1.07 1.11 1.16 1.21 1.25 1.28 1.28 1.26 1.23 1.22 1.28 1.30 1.30 1.31 1.28 1.26 1.27 1.28 1.28 1.25 1.23 1.19 1.18 1.18 1.17 1.15 1.13 1.15 1.16 1.21 1.29 1.28 1.29 1.29
0.18 0.16 0.19 0.21 0.20 0.22 0.22 0.24 0.25 0.22 0.20 0.19 0.19 0.20 0.16 0.13 0.15 0.09 0.10 0.11 0.12 0.14 0.16 0.21 0.21 0.27 0.24 0.31 0.33 0.35 0.37 0.40 0.45 0.50 0.58 0.62 0.69 0.75 0.81 0.84 0.86 0.88 0.90 0.95 0.99 1.03 1.06 1.09 1.12 1.11 1.08 1.06 1.08 1.12 1.15 1.19 1.25 1.29 1.31 1.33 1.30 1.27 1.29 1.33 1.34 1.34 1.33 1.33 1.33 1.32 1.29 1.28 1.27 1.24 1.22 1.21 1.22 1.20 1.18 1.17 1.19 1.23 1.30 1.31 1.32 1.35
0.21 0.17 0.21 0.23 0.24 0.21 0.22 0.25 0.24 0.24 0.15 0.18 0.19 0.15 0.14 0.17 0.16 0.12 0.11 0.14 0.17 0.17 0.14 0.21 0.22 0.26 0.30 0.31 0.33 0.36 0.35 0.37 0.44 0.47 0.52 0.56 0.61 0.71 0.76 0.80 0.83 0.86 0.89 0.93 0.97 1.01 1.05 1.10 1.13 1.15 1.14 1.12 1.11 1.13 1.14 1.16 1.23 1.26 1.31 1.35 1.35 1.34 1.36 1.36 1.37 1.36 1.37 1.37 1.36 1.34 1.33 1.31 1.29 1.26 1.21 1.18 1.17 1.17 1.19 1.20 1.24 1.27 1.32 1.37 1.36 1.35
0.19 0.17 0.22 0.21 0.19 0.22 0.23 0.26 0.27 0.26 0.25 0.20 0.16 0.15 0.19 0.20 0.18 0.15 0.10 0.10 0.11 0.11 0.11 0.17 0.16 0.18 0.21 0.19 0.31 0.33 0.34 0.35 0.39 0.44 0.49 0.51 0.56 0.63 0.68 0.74 0.78 0.81 0.86 0.91 0.95 1.01 1.06 1.09 1.12 1.16 1.16 1.15 1.14 1.13 1.14 1.18 1.25 1.31 1.36 1.37 1.35 1.36 1.33 1.35 1.39 1.41 1.42 1.40 1.38 1.36 1.35 1.34 1.31 1.27 1.24 1.22 1.19 1.21 1.20 1.20 1.25 1.31 1.33 1.34 1.36 1.38
0.26 0.18 0.20 0.22 0.20 0.21 0.24 0.25 0.24 0.27 0.29 0.23 0.19 0.21 0.16 0.13 0.12 0.14 0.13 0.08 0.07 0.08 0.10 0.12 0.15 0.17 0.19 0.20 0.25 0.28 0.30 0.32 0.37 0.41 0.44 0.47 0.53 0.58 0.62 0.67 0.74 0.78 0.85 0.91 0.95 1.00 1.04 1.08 1.11 1.15 1.15 1.17 1.18 1.18 1.18 1.22 1.28 1.34 1.38 1.41 1.40 1.35 1.35 1.36 1.38 1.40 1.43 1.45 1.42 1.40 1.37 1.36 1.34 1.33 1.30 1.27 1.25 1.24 1.21 1.18 1.22 1.26 1.29 1.35 1.40 1.41
0.27 0.19 0.19 0.24 0.22 0.22 0.21 0.22 0.17 0.20 0.25 0.26 0.27 0.23 0.22 0.17 0.14 0.12 0.12 0.13 0.10 0.07 0.07 0.08 0.12 0.11 0.16 0.19 0.23 0.24 0.29 0.31 0.34 0.37 0.41 0.44 0.48 0.52 0.56 0.61 0.66 0.75 0.82 0.87 0.93 0.98 1.03 1.08 1.11 1.13 1.16 1.18 1.20 1.18 1.20 1.26 1.33 1.34 1.38 1.40 1.40 1.41 1.44 1.45 1.42 1.39 1.36 1.39 1.41 1.42 1.43 1.41 1.39 1.37 1.32 1.29 1.26 1.22 1.20 1.19 1.22 1.25 1.30 1.33 1.39 1.40
0.24 0.25 0.18 0.22 0.25 0.23 0.18 0.20 0.17 0.19 0.18 0.21 0.21 0.20 0.20 0.19 0.18 0.16 0.16 0.13 0.11 0.09 0.08 0.07 0.06 0.07 0.12 0.19 0.21 0.22 0.26 0.30 0.35 0.36 0.39 0.43 0.46 0.49 0.53 0.58 0.63 0.70 0.75 0.81 0.88 0.94 1.00 1.05 1.09 1.13 1.18 1.22 1.24 1.21 1.23 1.27 1.29 1.30 1.36 1.39 1.40 1.38 1.39 1.40 1.42 1.42 1.39 1.41 1.41 1.42 1.39 1.36 1.37 1.36 1.36 1.34 1.31 1.25 1.21 1.20 1.23 1.27 1.30 1.36 1.37 1.41
0.26 0.25 0.19 0.22 0.21 0.20 0.20 0.23 0.21 0.20 0.22 0.21 0.20 0.18 0.18 0.17 0.16 0.13 0.12 0.16 0.15 0.12 0.09 0.08 0.06 0.07 0.12 0.18 0.19 0.21 0.24 0.28 0.31 0.32 0.34 0.41 0.46 0.51 0.53 0.57 0.62 0.65 0.70 0.76 0.84 0.91 0.97 1.03 1.08 1.13 1.18 1.22 1.23 1.22 1.23 1.28 1.30 1.30 1.31 1.33 1.38 1.40 1.40 1.39 1.42 1.42 1.40 1.41 1.41 1.40 1.40 1.39 1.38 1.37 1.35 1.31 1.29 1.25 1.21 1.19 1.20 1.25 1.31 1.31 1.35 1.40
0.29 0.27 0.24 0.21 0.21 0.22 0.23 0.24 0.24 0.23 0.22 0.24 0.24 0.21 0.21 0.20 0.20 0.16 0.12 0.12 0.14 0.13 0.14 0.13 0.09 0.07 0.13 0.16 0.16 0.17 0.20 0.24 0.27 0.29 0.34 0.42 0.46 0.49 0.52 0.55 0.59 0.63 0.67 0.72 0.79 0.87 0.93 0.98 1.05 1.10 1.13 1.16 1.18 1.19 1.22 1.25 1.27 1.26 1.26 1.31 1.35 1.36 1.35 1.38 1.40 1.46 1.48 1.43 1.38 1.37 1.41 1.42 1.39 1.37 1.33 1.29 1.25 1.21 1.18 1.18 1.19 1.25 1.26 1.27 1.31 1.37
0.38 0.26 0.21 0.22 0.25 0.27 0.28 0.28 0.27 0.25 0.24 0.22 0.24 0.26 0.23 0.20 0.19 0.17 0.15 0.15 0.12 0.13 0.12 0.12 0.10 0.11 0.14 0.17 0.17 0.16 0.16 0.18 0.23 0.28 0.33 0.38 0.42 0.46 0.48 0.51 0.56 0.61 0.67 0.73 0.78 0.85 0.88 0.91 0.98 1.05 1.09 1.12 1.15 1.18 1.20 1.22 1.24 1.25 1.26 1.27 1.30 1.30 1.33 1.39 1.42 1.45 1.46 1.44 1.41 1.42 1.42 1.40 1.39 1.35 1.31 1.25 1.22 1.18 1.18 1.19 1.19 1.23 1.24 1.27 1.31 1.31
0.29 0.28 0.24 0.20 0.21 0.22 0.24 0.26 0.25 0.25 0.24 0.22 0.21 0.23 0.24 0.24 0.21 0.19 0.19 0.20 0.14 0.13 0.13 0.11 0.08 0.10 0.13 0.18 0.19 0.22 0.21 0.20 0.21 0.26 0.32 0.35 0.39 0.44 0.50 0.56 0.62 0.64 0.66 0.70 0.75 0.80 0.84 0.88 0.92 0.96 1.01 1.04 1.07 1.11 1.15 1.17 1.20 1.22 1.22 1.24 1.24 1.26 1.34 1.39 1.44 1.44 1.44 1.42 1.40 1.42 1.41 1.39 1.40 1.34 1.30 1.25 1.22 1.19 1.19 1.19 1.19 1.20 1.20 1.25 1.27 1.31
0.36 0.30 0.26 0.19 0.16 0.15 0.16 0.16 0.17 0.19 0.19 0.22 0.23 0.23 0.23 0.22 0.22 0.20 0.16 0.17 0.13 0.15 0.14 0.12 0.10 0.13 0.14 0.16 0.15 0.15 0.15 0.14 0.17 0.24 0.30 0.32 0.35 0.39 0.45 0.49 0.56 0.65 0.68 0.71 0.74 0.79 0.81 0.84 0.89 0.93 0.97 1.01 1.03 1.05 1.08 1.11 1.15 1.17 1.19 1.21 1.24 1.27 1.34 1.38 1.42 1.42 1.42 1.42 1.39 1.37 1.37 1.38 1.39 1.35 1.31 1.28 1.25 1.23 1.22 1.22 1.20 1.17 1.19 1.23 1.24 1.29
0.35 0.35 0.30 0.26 0.23 0.20 0.21 0.25 0.29 0.27 0.23 0.19 0.19 0.21 0.22 0.23 0.23 0.22 0.20 0.17 0.14 0.17 0.14 0.14 0.13 0.14 0.13 0.13 0.13 0.14 0.14 0.14 0.13 0.14 0.20 0.25 0.30 0.37 0.40 0.43 0.49 0.58 0.65 0.70 0.75 0.80 0.83 0.85 0.87 0.91 0.96 1.00 1.02 1.05 1.07 1.09 1.12 1.15 1.16 1.17 1.23 1.28 1.31 1.35 1.39 1.41 1.42 1.42 1.39 1.37 1.35 1.36 1.36 1.37 1.36 1.33 1.29 1.28 1.27 1.23 1.19 1.17 1.15 1.21 1.25 1.27
0.38 0.32 0.32 0.31 0.32 0.31 0.33 0.31 0.30 0.30 0.23 0.20 0.20 0.20 0.21 0.22 0.22 0.22 0.19 0.16 0.20 0.18 0.14 0.17 0.16 0.14 0.14 0.14 0.14 0.14 0.14 0.15 0.15 0.15 0.18 0.22 0.28 0.33 0.37 0.41 0.45 0.51 0.57 0.67 0.75 0.81 0.83 0.84 0.86 0.88 0.94 1.00 1.03 1.06 1.08 1.10 1.11 1.11 1.12 1.13 1.18 1.26 1.31 1.35 1.38 1.40 1.41 1.41 1.39 1.36 1.35 1.36 1.38 1.41 1.40 1.39 1.36 1.31 1.27 1.24 1.21 1.18 1.19 1.23 1.24 1.25
0.37 0.31 0.34 0.37 0.31 0.32 0.34 0.33 0.32 0.30 0.27 0.23 0.21 0.21 0.21 0.22 0.22 0.21 0.21 0.22 0.21 0.18 0.14 0.17 0.18 0.15 0.15 0.15 0.15 0.15 0.16 0.16 0.17 0.19 0.22 0.27 0.31 0.35 0.39 0.41 0.42 0.44 0.49 0.55 0.66 0.79 0.84 0.84 0.84 0.86 0.91 0.97 1.02 1.05 1.08 1.11 1.15 1.18 1.19 1.19 1.21 1.25 1.28 1.33 1.35 1.36 1.40 1.41 1.38 1.36 1.38 1.41 1.44 1.45 1.44 1.42 1.38 1.32 1.28 1.26 1.23 1.22 1.22 1.23 1.24 1.27
0.39 0.34 0.39 0.38 0.33 0.33 0.33 0.33 0.33 0.30 0.28 0.27 0.23 0.21 0.22 0.23 0.22 0.22 0.22 0.23 0.22 0.21 0.22 0.22 0.21 0.19 0.19 0.18 0.17 0.16 0.17 0.17 0.20 0.26 0.31 0.34 0.37 0.38 0.38 0.40 0.44 0.46 0.48 0.53 0.59 0.70 0.83 0.84 0.85 0.87 0.91 0.94 0.99 1.03 1.07 1.11 1.13 1.16 1.18 1.20 1.23 1.25 1.30 1.36 1.35 1.34 1.36 1.36 1.36 1.39 1.44 1.45 1.45 1.45 1.45 1.43 1.37 1.33 1.31 1.29 1.28 1.25 1.22 1.22 1.24 1.26
0.38 0.32 0.39 0.38 0.33 0.31 0.33 0.34 0.34 0.31 0.29 0.27 0.27 0.24 0.22 0.22 0.23 0.23 0.22 0.23 0.23 0.23 0.24 0.24 0.23 0.22 0.24 0.24 0.22 0.19 0.18 0.20 0.21 0.23 0.31 0.35 0.34 0.33 0.34 0.36 0.37 0.39 0.48 0.58 0.63 0.67 0.79 0.86 0.89 0.92 0.93 0.93 0.95 0.98 1.03 1.07 1.11 1.15 1.18 1.21 1.25 1.27 1.32 1.36 1.33 1.35 1.35 1.32 1.34 1.41 1.46 1.46 1.45 1.47 1.44 1.42 1.40 1.38 1.35 1.31 1.30 1.26 1.23 1.23 1.24 1.24
0.41 0.36 0.40 0.38 0.31 0.28 0.33 0.34 0.34 0.33 0.30 0.29 0.27 0.26 0.23 0.21 0.20 0.21 0.22 0.23 0.22 0.21 0.22 0.23 0.22 0.21 0.24 0.27 0.26 0.23 0.19 0.18 0.17 0.19 0.21 0.24 0.29 0.32 0.33 0.34 0.35 0.39 0.49 0.60 0.68 0.73 0.82 0.89 0.91 0.94 0.96 0.97 0.98 1.00 1.03 1.07 1.13 1.18 1.18 1.21 1.23 1.27 1.34 1.35 1.33 1.31 1.32 1.33 1.38 1.42 1.43 1.44 1.45 1.45 1.44 1.45 1.42 1.38 1.36 1.35 1.32 1.28 1.24 1.23 1.21 1.22
0.40 0.38 0.34 0.34 0.30 0.28 0.34 0.38 0.35 0.35 0.31 0.27 0.25 0.24 0.24 0.23 0.22 0.23 0.24 0.25 0.24 0.24 0.22 0.20 0.20 0.24 0.25 0.27 0.26 0.24 0.21 0.18 0.18 0.20 0.21 0.23 0.30 0.34 0.34 0.33 0.36 0.40 0.50 0.59 0.66 0.72 0.79 0.83 0.85 0.91 0.97 1.01 1.03 1.03 1.04 1.09 1.12 1.15 1.18 1.18 1.20 1.28 1.33 1.33 1.32 1.29 1.28 1.33 1.38 1.40 1.42 1.45 1.46 1.45 1.45 1.45 1.45 1.46 1.43 1.36 1.31 1.27 1.24 1.20 1.20 1.23
0.41 0.39 0.36 0.39 0.30 0.29 0.34 0.38 0.38 0.31 0.24 0.21 0.23 0.27 0.27 0.25 0.24 0.22 0.22 0.24 0.26 0.26 0.23 0.24 0.25 0.27 0.28 0.28 0.26 0.25 0.23 0.19 0.18 0.23 0.30 0.29 0.28 0.32 0.37 0.41 0.45 0.47 0.53 0.59 0.67 0.73 0.79 0.85 0.87 0.91 0.95 1.01 1.07 1.09 1.11 1.15 1.13 1.14 1.19 1.19 1.24 1.28 1.28 1.29 1.30 1.30 1.28 1.32 1.36 1.39 1.42 1.45 1.45 1.45 1.46 1.49 1.51 1.51 1.45 1.37 1.26 1.23 1.24 1.24 1.26 1.23
0.39 0.39 0.37 0.40 0.33 0.29 0.35 0.38 0.32 0.25 0.23 0.25 0.30 0.31 0.30 0.30 0.29 0.27 0.26 0.26 0.26 0.27 0.27 0.27 0.27 0.28 0.29 0.30 0.30 0.29 0.29 0.38 0.37 0.39 0.43 0.43 0.38 0.35 0.39 0.48 0.52 0.53 0.62 0.64 0.66 0.73 0.79 0.84 0.86 0.89 0.93 0.98 1.03 1.11 1.17 1.20 1.20 1.17 1.19 1.23 1.23 1.23 1.20 1.21 1.21 1.23 1.25 1.28 1.33 1.39 1.43 1.45 1.45 1.45 1.49 1.54 1.54 1.52 1.44 1.35 1.27 1.24 1.25 1.25 1.22 1.18
0.39 0.38 0.38 0.37 0.37 0.36 0.34 0.34 0.26 0.25 0.31 0.33 0.34 0.34 0.34 0.33 0.32 0.30 0.28 0.29 0.31 0.29 0.27 0.27 0.28 0.30 0.31 0.31 0.32 0.34 0.40 0.49 0.50 0.48 0.52 0.54 0.53 0.47 0.44 0.46 0.58 0.67 0.65 0.69 0.73 0.76 0.76 0.79 0.82 0.84 0.86 0.93 1.01 1.07 1.13 1.15 1.19 1.14 1.10 1.17 1.13 1.11 1.12 1.13 1.15 1.17 1.23 1.27 1.32 1.35 1.39 1.42 1.45 1.48 1.54 1.56 1.55 1.49 1.41 1.35 1.30 1.23 1.25 1.25 1.24 1.26
0.43 0.41 0.39 0.34 0.39 0.31 0.32 0.33 0.33 0.37 0.33 0.34 0.32 0.33 0.34 0.30 0.30 0.28 0.24 0.29 0.39 0.41 0.34 0.29 0.28 0.31 0.34 0.34 0.36 0.42 0.48 0.48 0.43 0.48 0.59 0.60 0.56 0.56 0.56 0.55 0.57 0.57 0.61 0.70 0.75 0.79 0.85 0.87 0.87 0.87 0.88 0.93 0.99 1.05 1.09 1.13 1.17 1.14 1.10 1.11 1.12 1.13 1.15 1.16 1.15 1.17 1.22 1.26 1.32 1.38 1.42 1.45 1.46 1.50 1.55 1.56 1.52 1.46 1.41 1.36 1.32 1.31 1.32 1.26 1.23 1.22
0.45 0.39 0.40 0.36 0.37 0.39 0.33 0.32 0.34 0.31 0.26 0.30 0.44 0.53 0.58 0.58 0.44 0.35 0.31 0.31 0.43 0.46 0.46 0.37 0.32 0.34 0.34 0.38 0.41 0.44 0.45 0.36 0.33 0.43 0.59 0.65 0.66 0.61 0.61 0.63 0.65 0.66 0.67 0.69 0.71 0.72 0.78 0.80 0.81 0.85 0.88 0.92 0.97 1.02 1.07 1.14 1.18 1.15 1.10 1.08 1.11 1.13 1.12 1.13 1.11 1.14 1.19 1.22 1.30 1.38 1.46 1.53 1.56 1.56 1.57 1.55 1.49 1.46 1.45 1.45 1.41 1.35 1.34 1.25 1.21 1.21
0.45 0.46 0.45 0.45 0.40 0.42 0.37 0.33 0.33 0.30 0.32 0.46 0.51 0.58 0.62 0.61 0.52 0.43 0.31 0.27 0.41 0.48 0.51 0.44 0.39 0.42 0.39 0.40 0.43 0.44 0.37 0.31 0.35 0.47 0.65 0.70 0.69 0.70 0.65 0.67 0.71 0.73 0.74 0.72 0.71 0.72 0.73 0.76 0.80 0.84 0.86 0.88 0.91 1.00 1.09 1.14 1.18 1.18 1.12 1.12 1.13 1.12 1.08 1.07 1.09 1.15 1.17 1.20 1.28 1.36 1.44 1.51 1.58 1.61 1.62 1.57 1.53 1.54 1.53 1.49 1.43 1.40 1.41 1.34 1.29 1.25
0.44 0.47 0.49 0.47 0.42 0.43 0.38 0.33 0.32 0.37 0.37 0.51 0.63 0.68 0.70 0.70 0.59 0.43 0.25 0.24 0.42 0.58 0.55 0.52 0.46 0.46 0.47 0.46 0.45 0.41 0.36 0.31 0.38 0.54 0.77 0.79 0.77 0.76 0.70 0.67 0.70 0.72 0.74 0.78 0.80 0.83 0.82 0.78 0.75 0.82 0.84 0.83 0.88 1.01 1.09 1.13 1.13 1.13 1.15 1.16 1.19 1.17 1.09 1.05 1.07 1.15 1.21 1.26 1.34 1.41 1.47 1.53 1.55 1.59 1.63 1.61 1.60 1.63 1.62 1.63 1.59 1.51 1.42 1.35 1.33 1.31
0.44 0.46 0.46 0.38 0.40 0.43 0.40 0.37 0.41 0.44 0.60 0.70 0.72 0.80 0.77 0.73 0.53 0.31 0.24 0.29 0.58 0.65 0.64 0.60 0.58 0.57 0.56 0.52 0.51 0.42 0.56 0.57 0.66 0.78 0.85 0.87 0.83 0.78 0.78 0.78 0.77 0.81 0.78 0.78 0.79 0.82 0.78 0.80 0.79 0.79 0.85 0.95 1.03 1.08 1.09 1.10 1.09 1.07 1.11 1.18 1.21 1.17 1.16 1.16 1.15 1.17 1.24 1.33 1.39 1.42 1.42 1.47 1.50 1.53 1.63 1.68 1.69 1.70 1.72 1.73 1.66 1.58 1.49 1.39 1.37 1.37
0.47 0.47 0.50 0.45 0.42 0.43 0.44 0.39 0.41 0.49 0.66 0.80 0.83 0.85 0.85 0.56 0.33 0.30 0.45 0.69 0.72 0.69 0.72 0.70 0.65 0.68 0.66 0.63 0.64 0.65 0.74 0.82 0.84 0.85 0.83 0.85 0.81 0.82 0.83 0.82 0.81 0.80 0.83 0.85 0.86 0.82 0.77 0.76 0.77 0.82 0.89 0.96 0.99 1.09 1.14 1.13 1.09 1.10 1.15 1.19 1.18 1.19 1.26 1.29 1.27 1.28 1.31 1.34 1.37 1.36 1.34 1.38 1.47 1.52 1.56 1.68 1.79 1.80 1.76 1.77 1.76 1.68 1.58 1.49 1.42 1.36
0.50 0.45 0.43 0.40 0.46 0.50 0.50 0.41 0.40 0.36 0.60 0.88 0.88 0.78 0.84 0.52 0.61 0.77 0.89 0.88 0.93 0.83 0.76 0.74 0.73 0.77 0.74 0.74 0.81 0.80 0.80 0.81 0.79 0.78 0.77 0.79 0.81 0.78 0.78 0.78 0.74 0.76 0.79 0.81 0.79 0.85 0.84 0.79 0.77 0.78 0.80 0.90 0.95 0.98 1.03 1.08 1.06 1.10 1.16 1.15 1.14 1.19 1.25 1.34 1.41 1.43 1.41 1.39 1.38 1.39 1.38 1.35 1.38 1.45 1.55 1.60 1.68 1.71 1.73 1.78 1.79 1.78 1.72 1.60 1.49 1.42
0.60 0.47 0.48 0.47 0.52 0.41 0.42 0.39 0.43 0.64 0.81 0.97 0.95 0.69 0.83 0.87 0.97 1.02 1.05 0.89 0.94 0.92 0.83 0.78 0.80 0.84 0.82 0.78 0.78 0.79 0.80 0.77 0.79 0.82 0.81 0.80 0.81 0.81 0.81 0.85 0.87 0.85 0.82 0.85 0.86 0.88 0.91 0.84 0.82 0.81 0.85 0.87 0.92 0.97 0.97 0.93 0.88 0.90 0.94 0.95 1.05 1.17 1.31 1.42 1.46 1.46 1.41 1.38 1.37 1.37 1.41 1.47 1.47 1.45 1.52 1.56 1.62 1.65 1.67 1.73 1.77 1.80 1.78 1.70 1.59 1.49
0.61 0.52 0.60 0.46 0.57 0.47 0.46 0.52 0.68 0.85 0.99 1.04 1.03 0.98 1.00 1.06 1.10 1.15 1.08 1.00 0.90 0.92 0.99 0.86 0.85 0.90 0.90 0.86 0.85 0.83 0.80 0.83 0.82 0.85 0.80 0.81 0.82 0.82 0.82 0.82 0.85 0.86 0.87 0.86 0.87 0.89 0.90 0.87 0.86 0.88 0.87 0.91 0.92 0.96 1.00 1.00 0.91 0.89 0.85 0.93 1.10 1.17 1.24 1.31 1.38 1.43 1.48 1.46 1.35 1.29 1.30 1.30 1.35 1.42 1.48 1.56 1.61 1.60 1.60 1.61 1.69 1.70 1.77 1.76 1.65 1.57
0.75 0.70 0.76 0.67 0.58 0.67 0.69 0.74 0.84 0.92 0.98 1.03 1.05 1.08 1.06 1.10 1.20 1.20 1.12 1.01 0.97 0.99 0.99 0.92 0.94 0.93 0.93 0.91 0.83 0.85 0.85 0.87 0.86 0.87 0.88 0.88 0.87 0.89 0.90 0.91 0.91 0.93 0.93 0.91 0.93 0.97 0.99 0.98 0.96 0.94 0.92 0.97 1.02 1.03 1.05 1.05 1.03 0.94 0.98 1.08 1.13 1.17 1.19 1.21 1.25 1.27 1.24 1.24 1.29 1.30 1.31 1.33 1.35 1.38 1.45 1.57 1.64 1.62 1.65 1.62 1.62 1.66 1.72 1.79 1.74 1.62
0.71 0.78 0.73 0.61 0.69 0.56 0.47 0.74 0.78 0.84 0.92 1.01 1.03 1.08 1.13 1.11 1.16 1.16 1.13 1.10 1.07 1.05 1.01 1.03 1.00 0.97 0.95 0.92 0.84 0.83 0.85 0.89 0.85 0.86 0.89 0.89 0.89 0.90 0.92 0.92 0.93 0.95 0.94 0.92 0.96 0.99 0.98 0.98 0.98 0.98 0.98 0.94 1.01 1.04 1.07 1.08 1.08 1.08 1.09 1.10 1.16 1.20 1.21 1.19 1.17 1.15 1.16 1.19 1.23 1.29 1.35 1.36 1.41 1.46 1.50 1.55 1.64 1.70 1.71 1.72 1.73 1.68 1.69 1.71 1.70 1.69
0.54 0.78 0.63 0.68 0.67 0.56 0.54 0.70 0.80 0.85 0.90 1.05 1.05 1.02 1.03 1.07 1.11 1.16 1.16 1.16 1.12 1.08 1.03 1.02 1.00 0.95 0.95 0.89 0.90 0.85 0.85 0.87 0.83 0.82 0.82 0.83 0.85 0.86 0.88 0.91 0.94 0.95 0.99 1.02 1.03 1.03 1.01 1.00 1.00 1.01 1.02 1.02 1.07 1.12 1.13 1.11 1.09 1.11 1.12 1.13 1.16 1.18 1.19 1.16 1.13 1.09 1.06 1.08 1.15 1.22 1.27 1.34 1.41 1.47 1.54 1.61 1.65 1.67 1.71 1.75 1.79 1.77 1.69 1.69 1.59 1.59
0.67 0.72 0.55 0.68 0.63 0.69 0.72 0.79 0.84 0.84 0.89 1.01 1.04 1.06 1.08 1.08 1.13 1.15 1.17 1.14 1.14 1.08 1.03 1.05 1.05 1.03 1.02 0.98 1.00 0.95 0.90 0.92 0.93 0.91 0.87 0.87 0.87 0.88 0.90 0.92 0.95 0.96 0.97 0.98 1.01 1.01 0.97 0.97 0.96 0.98 1.00 1.05 1.13 1.16 1.17 1.19 1.22 1.24 1.23 1.24 1.26 1.24 1.21 1.21 1.25 1.27 1.26 1.27 1.28 1.26 1.32 1.35 1.38 1.42 1.44 1.53 1.68 1.77 1.76 1.67 1.67 1.77 1.86 1.92 1.94 1.73
0.65 0.57 0.67 0.68 0.58 0.55 0.55 0.66 0.78 0.65 0.68 0.92 1.00 1.04 1.04 1.11 1.15 1.12 1.13 1.10 1.09 1.07 1.06 1.02 1.04 1.08 1.09 1.09 1.07 1.02 0.94 0.95 0.97 0.97 0.91 0.92 0.91 0.92 0.94 0.96 0.98 0.97 0.99 1.01 1.02 1.02 1.01 1.01 1.00 0.97 0.98 1.04 1.11 1.13 1.13 1.12 1.14 1.18 1.24 1.32 1.38 1.38 1.32 1.29 1.29 1.31 1.33 1.38 1.38 1.39 1.41 1.42 1.45 1.52 1.59 1.63 1.55 1.54 1.65 1.73 1.70 1.73 1.80 1.99 2.10 2.10
0.61 0.65 0.69 0.61 0.56 0.54 0.74 0.82 0.83 0.77 0.78 0.94 1.01 1.05 1.12 1.17 1.19 1.18 1.12 1.08 1.09 1.09 1.09 1.05 1.01 1.04 1.05 1.10 1.13 1.07 1.01 0.98 0.98 0.99 0.94 0.93 0.95 0.99 1.01 1.00 0.97 0.98 1.00 1.04 1.02 1.03 1.01 1.01 1.01 1.01 1.02 1.04 1.10 1.10 1.10 1.10 1.12 1.16 1.22 1.26 1.27 1.27 1.27 1.30 1.28 1.29 1.34 1.40 1.41 1.42 1.44 1.47 1.49 1.50 1.49 1.48 1.49 1.52 1.48 1.45 1.58 1.70 1.79 1.85 2.04 2.04
Wind_Speed
19 19 21 22 22 23 23 23 22 21 21 21 19 18 17 16 16 16 14 12 10 10 13 16 16 15 16 17 16 15 14 13 12 11 10 12 13 13 13 13 14 16 17 17 18 21 22 22 23 23 22 23 23 22 22 22 22 22 21 21 20 20 19 19 18 17 16 15 15 14 13 13 12 12 11 11 11 11 11 11 10 10 9 9 8 8
18 20 21 21 21 22 23 22 22 21 22 22 20 20 19 17 17 17 15 14 11 10 12 14 15 17 18 19 17 16 15 14 13 12 11 13 14 14 14 14 15 16 16 17 18 20 22 22 23 23 23 23 24 23 23 23 22 22 22 22 21 20 20 19 19 18 17 16 15 14 14 13 13 12 12 12 11 11 11 11 11 10 10 9 8 8
18 20 21 20 21 22 22 22 22 22 22 22 22 20 20 19 17 16 16 16 14 12 12 12 14 18 18 19 19 18 17 15 15 14 13 14 14 14 15 15 15 15 16 17 19 20 22 23 24 24 24 24 24 24 24 23 23 22 22 22 21 21 21 20 19 19 17 17 16 15 14 14 13 13 12 12 12 12 12 11 11 11 11 10 9 8
17 18 19 20 20 21 22 23 22 22 22 22 22 21 21 20 17 16 16 15 14 13 12 11 12 16 18 19 21 21 19 16 16 16 14 14 14 15 16 16 16 16 17 18 20 20 21 23 24 24 24 25 25 25 24 24 23 23 22 22 22 22 21 20 20 19 18 18 17 16 15 14 14 13 13 13 13 13 12 12 12 12 11 10 9 9
18 16 17 19 20 21 22 23 23 22 22 22 23 22 22 22 19 18 17 14 14 14 13 10 11 14 17 20 21 21 20 18 17 16 15 15 15 15 17 17 18 18 18 19 20 21 21 23 24 25 25 25 25 25 25 25 24 23 23 23 22 22 21 21 20 20 19 19 18 17 16 15 15 14 13 13 13 13 13 13 12 12 12 11 10 9
19 17 15 17 19 21 22 23 23 22 22 23 24 24 24 23 21 20 18 15 15 16 15 12 11 14 17 21 23 21 20 20 18 17 17 17 16 16 16 18 18 18 19 19 20 21 22 23 24 25 25 25 25 25 25 25 25 24 23 23 22 22 21 21 21 21 20 20 19 18 17 16 15 15 14 14 13 13 13 13 12 12 12 11 10 10
18 17 16 17 18 20 22 23 23 22 22 23 23 23 24 24 23 22 20 17 17 17 16 13 13 13 15 21 23 22 22 22 19 18 18 18 17 17 17 18 19 19 19 20 20 21 22 23 24 24 25 26 26 26 26 26 26 25 24 24 24 23 22 22 22 22 21 21 20 20 19 18 17 16 15 15 14 14 14 13 13 13 12 12 11 10
17 18 18 18 18 19 21 22 22 22 22 22 20 20 23 25 24 24 22 21 20 19 19 17 15 14 14 19 23 23 24 23 21 19 19 18 18 18 18 18 20 20 20 20 21 21 21 22 23 24 25 26 26 26 26 26 26 26 26 25 25 24 23 23 22 22 22 22 21 21 20 19 18 18 17 16 15 14 14 14 14 13 13 12 12 11
16 18 19 20 20 19 19 20 21 22 23 21 18 20 22 24 25 24 22 22 21 21 22 21 18 16 15 17 20 23 25 25 23 21 19 19 19 19 19 19 20 21 21 21 22 22 22 23 24 24 25 26 26 26 26 27 27 27 26 26 25 25 24 24 23 23 23 22 22 21 21 20 19 19 18 17 16 16 15 15 15 14 14 13 12 12
16 18 19 19 20 19 18 18 19 22 22 19 19 20 21 22 23 23 23 23 21 22 24 23 20 18 16 16 18 21 24 25 24 22 20 20 20 20 19 19 20 21 21 22 22 23 23 23 24 25 25 25 26 26 26 27 26 26 26 26 26 26 25 24 24 24 23 23 22 22 22 21 20 20 19 18 17 17 17 16 16 15 15 14 13 12
18 17 18 17 18 18 18 18 19 20 21 18 18 20 20 21 22 22 22 22 21 23 26 25 22 20 18 18 18 20 22 24 23 21 20 20 20 21 20 20 20 20 21 22 23 23 24 24 25 25 25 25 25 25 26 26 26 26 26 26 26 26 25 25 25 24 24 24 23 23 23 22 22 21 20 19 19 18 18 17 17 16 16 15 14 13
21 19 18 17 17 17 17 19 19 19 20 19 18 19 19 20 21 22 22 22 23 24 24 25 24 23 21 19 18 20 21 23 23 23 22 21 21 21 21 21 20 20 21 23 23 23 24 24 24 25 25 25 25 25 25 26 26 26 26 26 26 26 26 25 25 25 25 24 24 23 23 23 23 22 21 21 20 20 19 18 17 17 16 15 14 14
22 22 20 18 18 18 18 18 19 19 20 21 19 19 18 17 18 22 22 22 23 23 23 23 23 24 25 22 20 21 22 23 23 23 23 22 22 22 22 22 21 21 21 23 24 24 24 24 24 25 26 26 25 25 26 26 26 26 26 27 27 27 27 26 26 26 26 25 25 24 24 24 23 23 22 22 21 21 20 19 18 18 17 16 15 15
20 21 22 22 20 19 19 19 19 19 20 22 22 21 20 18 18 21 21 20 21 22 22 23 23 24 24 22 21 22 22 23 24 24 25 24 24 24 23 22 21 21 22 23 24 25 25 25 25 25 26 26 26 26 27 26 26 26 26 27 27 27 27 27 27 27 27 26 26 25 25 24 24 23 23 22 22 21 21 20 20 19 18 17 16 16
20 19 22 24 21 20 22 21 20 19 20 22 22 21 22 21 19 18 18 18 20 20 21 22 23 23 23 22 21 21 22 22 24 25 26 25 24 24 24 22 22 22 22 22 24 25 26 26 26 26 27 27 27 27 27 27 26 26 26 27 28 28 28 28 28 28 28 27 27 26 26 25 24 24 23 23 22 22 22 21 21 20 19 18 17 17
23 21 20 21 21 21 23 22 20 19 20 21 21 22 24 23 21 19 19 19 18 18 20 21 23 24 23 22 21 21 22 21 22 25 26 24 23 23 23 22 22 23 22 23 23 25 27 28 27 27 28 28 28 28 28 27 27 27 27 27 28 28 28 28 28 28 28 28 28 27 27 26 26 25 24 24 23 23 23 22 22 21 20 19 18 18
22 22 19 19 21 23 23 22 22 23 21 19 21 24 23 21 22 22 21 20 18 19 20 21 22 23 22 23 22 21 22 22 21 22 23 23 22 22 23 23 24 24 23 24 24 24 26 28 28 29 29 28 28 28 29 28 28 28 27 27 28 28 28 28 28 28 28 28 28 28 28 27 27 26 25 24 24 24 23 23 22 22 21 20 19 19
21 21 20 21 22 23 23 23 24 25 23 21 22 22 19 19 23 22 20 20 20 21 20 20 22 23 21 21 21 21 22 22 21 21 22 23 22 21 23 24 25 25 25 25 25 25 26 27 28 29 30 29 29 29 29 29 28 28 28 27 27 27 27 28 28 28 28 28 28 28 28 28 27 27 26 25 25 25 24 24 23 22 22 21 21 20
24 23 23 23 24 22 22 24 26 26 26 24 22 20 19 20 22 21 20 19 20 20 19 19 21 23 22 21 20 21 22 22 22 22 22 22 21 21 22 24 25 26 25 25 25 25 25 27 28 29 30 30 30 30 30 29 28 27 27 27 27 27 27 27 27 27 27 28 28 28 28 28 28 27 27 26 25 25 25 25 24 23 23 22 22 21
26 25 24 24 24 22 22 26 28 28 27 25 22 23 23 22 22 22 21 19 18 18 18 17 18 21 24 23 21 21 22 22 22 22 22 22 22 22 22 23 24 24 25 25 24 25 25 27 28 29 30 30 30 30 29 29 28 28 27 27 27 27 26 26 26 27 27 27 28 28 28 28 28 28 27 27 26 26 26 26 25 25 24 24 23 22
27 27 27 24 24 25 25 27 29 28 28 27 26 26 25 23 21 22 22 21 19 17 16 16 18 20 22 22 22 23 22 22 21 21 22 23 23 23 23 23 23 23 24 24 24 25 26 27 28 29 30 31 30 29 29 28 28 28 28 27 27 27 26 26 26 27 27 27 27 28 28 28 28 28 27 27 27 26 26 26 26 26 25 25 24 23
30 29 29 27 27 28 28 28 28 28 29 29 29 28 27 25 22 20 21 22 21 20 18 17 19 20 19 19 21 22 23 24 23 22 21 22 23 23 24 25 25 24 24 24 24 25 25 26 27 28 29 30 29 29 28 28 28 28 28 28 27 27 27 27 27 27 27 26 27 27 27 28 28 28 28 27 27 27 27 27 27 27 26 26 25 24
30 30 31 31 31 30 29 28 27 29 30 30 31 30 28 27 25 24 22 20 21 22 20 18 19 20 19 18 18 19 22 23 24 23 22 22 24 24 25 27 27 26 25 24 24 25 25 25 27 28 28 29 29 29 29 29 29 29 29 29 28 28 28 28 27 27 26 26 27 27 27 27 27 28 28 28 27 27 27 27 27 27 27 27 26 25
29 31 32 31 30 29 29 28 28 28 29 30 32 32 31 30 29 27 24 21 21 22 19 18 18 17 16 16 16 17 18 18 21 23 24 23 23 24 24 26 27 27 26 25 25 26 25 24 26 27 28 28 28 28 29 29 29 30 30 29 29 29 29 28 27 27 27 27 27 27 27 27 27 27 27 27 27 27 27 27 27 28 28 27 27 26
29 30 30 29 28 28 28 28 30 31 30 30 31 32 34 34 31 28 25 23 23 24 22 20 19 17 15 15 15 15 15 16 18 22 25 24 23 23 23 24 25 26 27 26 27 27 26 25 25 26 27 27 28 28 29 29 30 30 30 30 30 29 29 28 28 27 27 27 27 27 27 27 27 27 27 27 27 27 27 27 27 28 28 28 27 27
30 30 30 30 30 30 29 29 30 31 31 30 30 32 33 35 34 30 27 26 25 24 23 23 20 18 18 17 16 17 17 18 19 21 23 25 24 23 23 24 24 25 26 27 28 28 27 25 25 26 27 27 28 28 28 29 30 30 30 31 31 30 29 29 28 28 28 28 27 27 27 27 27 27 27 26 26 27 27 27 28 28 28 28 28 28
30 30 31 32 32 32 31 30 29 28 31 33 33 33 33 34 35 33 30 30 28 24 26 27 23 19 20 19 18 19 19 19 19 20 22 24 24 24 24 25 25 25 26 27 28 29 28 27 26 27 27 28 28 29 29 29 29 30 30 30 30 30 29 29 29 29 29 28 28 28 27 27 27 27 26 26 26 27 27 27 28 28 29 29 29 28
30 31 32 33 34 33 32 32 31 30 33 35 35 34 33 32 34 35 36 33 28 26 28 28 25 24 23 21 20 20 20 19 18 18 20 22 24 24 24 25 25 26 26 26 28 30 29 28 27 27 27 28 29 30 30 29 29 30 30 30 30 30 30 30 30 30 30 29 29 29 28 27 27 27 27 27 26 27 27 27 28 29 29 29 29 29
30 32 31 31 34 35 34 34 33 33 34 34 35 36 35 34 34 37 38 35 31 31 30 27 26 28 26 24 23 21 20 19 18 18 20 21 23 23 23 24 25 26 26 26 28 30 30 29 28 28 28 28 29 30 30 30 30 29 30 30 30 30 30 31 31 31 31 31 30 29 29 28 27 27 27 27 27 27 27 28 28 29 29 30 30 29
30 31 30 31 34 36 35 35 34 34 34 34 35 36 36 36 37 37 37 36 35 35 32 28 29 30 27 26 25 24 22 19 17 18 19 20 21 22 22 23 24 25 26 27 28 30 31 31 29 28 28 28 28 30 30 30 30 30 30 30 30 31 31 31 32 32 32 31 31 30 30 29 28 28 28 28 28 28 28 28 28 29 29 30 30 30
29 31 30 30 33 35 35 34 33 35 36 35 35 35 36 37 38 38 37 35 35 36 33 29 30 30 27 25 25 25 24 19 17 19 20 20 21 21 22 23 24 25 26 27 28 29 31 32 30 28 28 28 28 29 30 30 31 30 30 30 30 31 31 32 32 33 33 32 32 31 31 30 30 29 28 28 28 28 28 29 29 29 30 30 30 30
30 31 30 29 31 34 33 30 31 33 35 37 38 37 38 38 37 36 35 34 34 35 34 32 32 29 26 24 24 25 24 22 20 21 22 23 22 22 23 24 24 25 25 25 26 27 29 30 30 29 28 28 28 28 29 30 30 30 30 30 31 31 31 32 33 34 34 33 32 32 32 31 31 31 30 29 29 29 29 29 30 30 30 30 30 30
32 31 30 29 31 34 32 29 30 31 31 36 41 41 40 39 37 35 34 34 35 35 34 34 33 29 24 21 22 23 25 26 25 23 23 23 22 23 24 24 24 24 25 24 24 25 27 29 30 30 30 29 29 29 29 30 30 31 31 32 31 31 31 31 32 34 34 34 33 33 33 32 32 32 31 31 30 30 29 30 30 30 31 31 31 31
33 32 31 30 31 34 32 29 29 29 32 37 39 39 38 38 37 36 34 34 34 34 34 33 31 29 24 21 22 23 23 24 24 23 23 22 21 22 23 24 23 23 24 24 24 25 26 27 28 29 28 29 30 30 30 30 31 32 32 32 31 31 31 31 32 33 34 34 34 34 33 33 33 33 33 32 32 31 30 30 31 31 31 31 31 31
35 33 32 31 32 33 31 28 28 30 35 37 35 34 37 37 35 35 35 34 34 34 33 31 30 29 26 23 23 22 21 21 21 21 21 20 20 21 21 21 21 21 22 23 24 25 25 26 27 28 28 29 30 31 30 30 31 32 32 32 31 31 31 31 31 32 33 33 34 34 34 34 34 34 34 33 33 33 32 31 31 32 32 32 32 32
37 34 32 32 32 32 30 29 30 31 34 34 31 31 32 32 33 35 35 34 33 33 32 32 31 28 26 24 24 22 21 20 19 19 20 19 19 19 20 20 20 20 21 21 22 24 25 25 26 27 27 29 30 30 31 31 31 32 32 32 32 32 32 31 32 32 32 33 34 34 35 35 35 35 35 34 34 34 34 33 32 32 32 32 33 33
39 36 34 33 32 31 31 31 31 31 32 31 30 28 28 30 33 34 34 34 33 32 31 32 31 28 26 25 24 22 21 19 18 20 21 20 19 19 20 20 20 20 20 20 21 22 23 24 25 25 25 27 28 30 31 31 32 32 31 32 32 32 32 33 33 33 33 33 34 34 35 35 36 36 36 36 36 35 35 34 33 32 32 33 33 33
41 38 35 33 32 31 31 30 29 29 30 30 30 29 29 29 31 32 33 33 33 32 31 30 29 28 28 27 25 23 20 17 18 21 22 21 21 21 20 20 20 20 20 20 20 21 22 23 24 25 25 25 27 29 29 30 31 32 32 32 32 32 33 33 34 34 34 34 34 34 35 36 37 37 37 37 37 37 36 35 34 33 33 33 34 34
42 39 35 34 33 32 31 29 28 29 30 29 29 29 30 31 31 31 33 34 34 33 31 30 29 28 28 29 27 25 21 19 20 22 21 21 21 20 20 20 20 20 20 20 20 20 21 22 23 25 25 26 27 28 28 28 30 31 32 32 32 32 32 33 34 34 35 35 34 34 35 36 37 38 39 39 38 38 37 36 35 34 34 34 34 34
41 38 35 35 36 34 32 30 29 29 29 27 26 27 30 31 31 31 33 35 34 32 30 30 29 27 27 27 26 24 23 23 23 22 20 19 20 19 19 19 19 19 20 20 20 20 21 21 22 23 24 25 26 27 27 29 31 32 33 34 33 33 34 34 34 34 35 35 34 34 34 35 36 38 40 40 39 39 38 37 37 36 35 35 35 35
40 38 36 35 35 34 32 30 29 29 28 26 25 27 28 30 31 32 34 34 33 31 30 28 27 26 24 24 24 24 23 23 22 21 20 19 19 19 19 19 19 19 19 20 20 20 20 21 21 21 22 23 25 26 28 30 32 33 35 35 35 36 36 36 36 35 35 36 36 36 35 35 36 37 39 39 39 39 39 39 38 38 37 36 36 36
37 38 37 35 33 32 31 29 27 28 27 23 24 27 27 27 30 31 32 31 30 30 29 27 25 24 22 21 21 22 22 21 21 20 20 19 19 19 19 19 19 19 19 19 19 20 20 21 21 21 21 22 23 25 28 30 32 34 35 36 37 38 38 38 37 37 36 36 36 37 37 36 36 36 36 36 37 39 40 40 40 39 38 37 37 37
36 36 36 36 34 31 30 28 26 28 27 22 22 24 25 26 29 29 28 28 28 28 28 27 25 24 22 21 21 21 21 20 20 19 19 19 18 19 19 19 19 19 20 20 20 21 21 22 22 23 22 22 23 24 26 28 30 32 33 35 37 38 38 38 39 38 38 37 37 38 38 38 38 37 36 36 36 37 39 40 41 41 40 39 38 38
37 36 35 37 35 31 30 30 27 27 26 23 22 24 25 25 27 27 27 27 26 26 26 26 25 25 24 23 22 21 21 20 19 19 19 19 19 19 19 19 19 20 20 20 20 21 22 23 24 25 25 24 24 25 26 27 29 30 32 34 35 36 37 38 38 39 39 40 40 40 40 40 40 40 40 39 38 37 37 39 40 41 42 41 40 39
36 36 35 36 36 32 30 31 30 26 25 24 23 23 24 24 23 23 25 26 25 25 25 25 25 25 24 23 22 21 21 20 20 20 19 19 19 19 20 20 21 21 22 22 22 21 21 22 23 24 25 25 26 26 27 27 29 30 32 33 34 35 37 37 38 40 41 41 41 41 42 42 43 43 43 42 42 41 40 39 40 41 42 43 42 41
34 35 35 34 35 32 29 29 30 28 24 23 23 22 22 22 21 21 23 24 24 24 24 23 24 24 24 23 22 20 20 21 21 20 20 20 20 20 21 21 22 23 23 23 24 23 23 23 23 24 25 25 26 26 27 28 29 30 31 33 34 35 37 38 39 41 42 43 43 43 43 43 44 45 45 44 44 44 43 42 41 41 42 44 44 43
33 34 34 33 33 32 29 28 30 30 26 22 22 22 22 22 22 23 24 24 24 24 23 22 22 23 23 23 21 20 20 20 20 20 20 20 21 21 22 22 23 24 24 25 25 25 25 25 25 26 27 27 28 28 28 29 29 30 31 32 33 34 36 37 38 40 42 43 44 44 44 44 45 46 46 46 46 46 46 45 43 42 43 44 45 45
35 33 32 32 32 32 30 27 29 30 27 23 22 22 23 23 23 24 25 25 24 24 23 22 21 21 21 21 21 20 19 20 20 20 20 21 21 22 23 24 24 25 26 26 26 26 26 26 26 27 28 29 30 30 31 31 32 32 33 33 34 35 36 37 38 39 41 42 43 44 45 46 46 47 47 48 48 48 48 47 46 45 45 46 47 47
35 35 33 32 32 32 30 27 26 27 25 23 22 22 22 22 22 22 24 24 22 22 22 22 21 20 20 20 21 20 19 20 20 20 20 21 22 22 23 25 25 26 27 27 27 27 27 27 27 27 28 29 30 31 32 32 33 34 35 35 36 36 37 38 39 39 41 42 42 43 45 46 47 47 47 48 48 49 50 50 50 50 49 49 49 49
32 34 33 31 31 32 31 28 27 26 24 22 23 22 21 21 21 21 22 22 20 20 21 21 20 20 19 19 20 20 19 20 20 21 20 21 22 23 24 25 25 26 27 27 27 27 27 27 27 28 28 29 29 29 30 31 32 33 34 35 36 37 37 38 39 39 41 42 43 44 45 46 46 47 47 47 47 48 48 49 51 53 52 50 48 47
30 33 33 30 30 32 32 30 28 27 24 22 23 24 21 19 18 18 20 22 21 19 19 20 20 19 19 18 18 19 19 19 19 19 19 20 21 22 22 23 24 25 25 26 26 26 26 26 26 27 27 28 28 28 28 29 30 31 32 33 35 35 36 37 37 38 40 42 43 45 46 46 47 48 49 49 49 48 48 47 48 50 52 51 48 45
Wind_Direction
216 221 224 223 222 219 220 222 224 228 228 230 232 233 237 240 241 234 225 231 230 226 231 227 227 225 217 216 216 212 210 215 219 219 217 214 212 208 206 209 208 206 204 200 197 197 196 196 197 197 197 197 197 198 198 198 198 198 198 198 198 198 199 199 200 200 201 202 203 206 208 210 211 213 215 216 216 216 216 216 217 220 223 226 229 232
220 225 227 222 221 220 221 221 223 226 228 230 232 235 239 237 238 236 226 228 227 227 239 235 230 228 219 216 216 211 212 218 218 217 216 213 212 210 208 208 209 208 204 199 198 199 198 198 198 199 199 199 199 199 199 199 199 199 199 200 200 201 201 202 202 203 204 206 206 208 209 211 213 215 217 218 219 218 217 217 218 222 225 227 230 233
227 230 228 220 220 221 222 223 222 226 227 229 229 233 239 234 234 239 229 223 225 232 240 231 227 231 226 219 217 214 217 222 218 215 214 209 209 212 211 209 208 208 206 202 201 201 200 199 199 200 201 201 201 201 201 201 201 201 201 202 203 203 204 205 206 207 208 209 210 211 212 213 215 218 219 220 221 221 220 219 220 223 226 227 230 233
229 233 226 219 219 220 224 225 223 227 229 228 227 230 234 231 231 235 228 223 228 234 237 233 232 234 231 226 222 219 221 224 222 219 218 213 209 211 213 211 207 206 207 206 205 203 202 201 200 201 203 203 203 203 203 203 203 203 204 204 205 206 207 208 209 210 211 212 213 214 216 216 218 221 221 222 224 224 222 220 222 225 226 228 232 233
231 233 224 218 220 220 224 226 224 228 230 229 228 226 230 231 228 227 227 232 240 239 236 239 245 238 228 223 223 223 223 226 225 222 223 223 219 215 215 215 211 207 207 207 206 205 204 204 203 203 204 205 205 205 206 205 206 206 207 207 208 208 210 211 213 213 214 215 215 216 217 219 221 224 224 225 225 224 221 221 223 226 227 230 233 233
234 231 223 221 223 222 224 227 225 225 230 233 230 225 227 230 229 228 231 240 247 246 241 237 244 244 229 221 223 223 222 225 225 223 225 226 224 222 221 220 216 211 209 209 208 206 205 206 206 206 205 205 206 207 208 208 209 209 210 210 211 212 213 214 215 215 216 217 217 217 218 220 222 225 225 224 224 222 220 221 223 226 229 231 233 233
232 226 223 223 225 225 226 228 225 222 228 234 229 223 226 229 230 232 234 239 241 241 243 239 241 246 233 223 224 222 221 223 223 223 225 226 226 225 223 221 218 214 211 211 211 208 206 206 207 207 207 207 208 209 210 210 211 211 212 212 213 215 216 216 216 216 217 217 218 219 220 221 223 225 226 225 224 222 221 221 223 226 229 231 234 235
226 221 223 224 224 227 228 228 224 219 226 231 225 222 226 228 230 232 232 236 238 241 247 245 242 247 239 227 223 221 222 223 222 223 223 225 226 225 224 221 219 217 213 211 212 210 208 207 207 207 208 209 210 211 211 212 212 213 213 214 215 216 217 217 217 217 217 217 218 220 222 223 224 226 227 225 225 224 223 223 224 227 230 233 235 237
224 220 222 222 224 229 229 228 223 219 226 230 223 223 227 227 229 230 231 235 238 242 246 244 239 244 248 237 226 221 222 221 221 222 222 224 226 225 224 222 219 218 216 213 212 211 210 209 209 209 210 211 212 212 213 213 214 214 215 215 216 216 217 217 217 218 218 218 219 220 222 224 226 228 228 227 226 226 225 225 226 229 232 235 237 237
228 224 222 222 227 230 228 226 222 221 226 228 224 227 229 228 227 228 229 234 237 237 240 241 236 238 249 244 227 221 221 221 221 223 224 225 225 225 225 223 221 220 218 217 215 213 212 211 211 211 211 212 212 213 214 214 215 216 216 216 216 216 217 217 217 218 219 220 220 221 222 224 226 227 228 228 227 227 227 228 228 230 233 236 237 236
235 232 226 227 230 230 227 226 223 222 224 224 224 228 231 231 229 230 231 232 234 237 238 238 234 235 246 245 230 223 221 221 223 225 226 226 226 228 228 225 222 220 219 218 217 215 214 213 212 212 213 214 213 213 214 214 215 216 217 217 217 218 218 219 219 219 220 221 222 223 223 224 225 226 227 228 228 228 229 230 230 231 234 236 236 235
236 236 233 233 231 226 225 227 226 223 221 221 222 223 229 232 231 233 232 228 232 239 239 237 235 235 241 242 235 231 228 225 226 226 225 226 228 229 228 226 223 221 220 218 218 218 216 215 214 213 214 215 214 214 214 215 216 217 218 218 219 219 219 220 221 221 222 223 224 225 225 226 226 227 228 228 228 228 229 231 231 232 233 234 234 232
234 235 235 235 230 223 222 225 226 224 221 220 219 218 222 228 229 230 229 228 235 242 241 235 234 236 241 242 238 234 232 229 229 229 227 227 228 228 226 226 225 223 222 220 219 219 217 216 215 215 216 216 216 216 216 216 217 218 219 219 220 221 221 221 221 222 223 224 225 226 226 227 228 228 229 229 229 229 230 231 231 231 231 231 231 229
235 237 234 234 233 225 221 222 223 223 222 221 219 216 217 222 226 229 231 235 241 245 243 235 233 238 244 244 238 233 232 231 230 229 228 228 228 227 226 225 225 224 223 222 221 220 219 218 217 217 217 217 217 218 218 218 218 219 220 220 221 222 222 222 223 223 224 225 227 227 227 228 229 229 230 231 231 230 231 231 230 230 230 230 229 227
232 238 232 229 230 224 222 224 222 220 222 223 221 218 220 221 224 230 230 233 239 244 242 234 232 235 239 242 238 232 232 231 228 227 227 228 228 228 228 226 225 225 224 224 224 223 222 221 219 219 220 220 219 219 219 219 219 220 221 222 222 223 223 223 224 225 225 226 227 228 228 228 229 230 231 232 232 232 232 231 230 230 229 230 229 228
231 238 236 232 230 223 223 226 220 218 224 226 221 221 225 223 224 234 235 232 237 244 241 233 234 239 242 245 242 233 232 231 229 228 227 229 230 229 229 227 226 227 226 227 227 226 225 223 222 221 221 221 221 220 220 220 220 221 222 223 223 223 224 224 225 226 226 227 228 228 228 228 229 230 231 232 233 233 232 232 231 230 229 230 230 229
231 238 236 232 232 227 224 223 219 218 222 224 221 223 227 225 225 235 240 240 240 244 243 236 239 245 246 248 244 234 233 233 231 231 229 231 230 227 228 227 226 228 228 228 228 228 226 224 223 223 223 223 222 221 221 221 222 222 222 223 223 224 225 225 226 226 227 227 227 228 228 228 229 230 231 232 232 233 233 233 232 231 230 229 229 229
233 240 238 229 232 232 226 224 225 221 218 221 224 224 227 228 229 231 236 240 239 243 247 240 239 242 241 245 242 233 232 233 232 232 231 232 231 229 229 229 228 229 229 229 229 228 227 226 224 224 224 223 222 221 222 222 222 223 223 223 223 223 224 225 226 227 227 227 227 228 228 228 229 230 231 232 233 233 233 233 231 230 229 229 229 229
233 241 241 231 231 232 226 225 229 227 222 224 226 223 221 224 226 226 229 235 236 242 250 245 242 242 239 241 240 232 232 234 233 233 232 233 232 232 232 231 230 230 229 229 229 229 228 226 225 223 223 223 222 222 222 222 222 222 223 223 223 223 224 226 227 227 228 228 228 229 229 229 229 230 232 233 233 234 233 232 231 229 229 229 229 229
233 237 240 235 231 229 226 225 226 226 226 226 226 225 225 225 225 225 227 232 234 240 247 247 245 243 240 238 235 232 233 233 234 234 234 233 232 232 233 231 229 229 228 227 227 228 228 227 224 223 222 223 223 222 222 221 221 221 222 222 222 224 225 226 227 227 228 228 229 229 229 230 230 230 232 233 234 234 233 232 231 229 229 229 229 229
232 234 236 236 233 229 228 226 225 224 224 224 224 224 225 226 228 229 231 232 231 235 241 245 248 247 243 240 235 234 235 233 233 234 235 235 233 232 231 228 227 226 227 226 225 226 227 225 223 222 223 223 222 222 221 221 221 221 221 221 222 223 224 225 226 227 228 229 229 230 230 230 230 231 232 233 234 234 233 232 231 229 229 229 229 228
230 233 234 234 233 230 230 230 227 226 225 225 226 225 223 224 224 227 234 235 233 235 236 240 250 252 247 242 237 236 236 235 234 233 235 236 233 232 231 229 228 227 227 227 225 225 225 224 223 222 222 222 222 222 221 221 221 221 221 222 222 223 224 226 226 227 228 229 230 230 231 231 231 231 232 232 233 233 232 232 231 229 229 229 229 229
232 233 233 233 233 233 234 233 230 228 227 227 228 226 224 224 223 224 232 235 233 238 239 242 252 256 250 241 237 237 236 237 234 230 231 234 232 234 234 231 231 229 228 227 225 224 224 223 222 221 221 221 221 222 222 222 222 222 222 222 222 224 225 226 226 227 228 229 230 231 231 231 232 231 231 231 232 232 232 231 230 229 229 228 229 229
234 233 233 235 236 236 237 236 234 230 227 227 228 226 224 225 225 227 231 232 233 236 236 241 249 252 250 242 239 240 238 236 233 227 228 232 233 235 236 234 232 230 228 227 225 224 224 224 222 220 221 221 221 222 222 222 222 222 222 222 223 224 226 226 226 227 227 229 230 231 231 232 232 231 231 231 231 231 231 230 230 229 228 228 229 229
233 233 233 234 234 234 234 233 232 228 225 227 228 226 225 225 225 228 231 232 236 234 229 235 243 244 247 248 245 242 238 236 235 229 228 232 234 237 239 238 236 232 230 228 225 223 224 224 222 220 220 221 221 221 222 222 222 222 223 223 223 225 226 226 226 226 227 228 230 231 231 232 232 232 232 231 231 230 230 230 229 229 228 228 229 229
234 233 232 232 232 231 230 229 228 226 225 228 228 226 226 224 223 225 228 230 234 234 229 232 239 243 248 252 250 247 242 240 241 236 232 232 233 235 238 238 235 231 229 228 226 223 223 223 222 221 221 221 220 221 222 222 222 223 223 223 224 225 225 225 225 226 226 227 229 231 231 232 233 233 232 232 231 231 230 230 230 229 228 228 228 229
235 235 233 233 236 236 236 235 231 226 226 228 228 227 227 225 223 224 227 229 231 233 234 234 237 242 246 248 249 249 247 245 245 242 237 235 235 236 237 236 233 229 228 228 227 224 223 223 222 221 222 222 222 222 222 223 223 224 224 224 224 224 224 224 225 225 226 227 229 231 232 232 233 233 233 232 232 231 231 231 230 229 228 228 228 229
236 237 236 237 239 240 241 241 234 227 227 228 227 227 227 226 224 224 228 230 228 231 237 237 235 240 245 246 246 247 248 248 247 242 238 237 237 238 238 236 233 230 229 229 228 225 223 222 222 223 223 223 223 223 223 224 224 225 225 224 224 224 224 225 225 226 227 228 229 231 232 233 233 234 234 233 232 232 232 231 231 230 229 228 228 229
236 236 237 240 244 243 242 241 235 231 231 228 226 226 226 225 224 226 229 230 227 232 238 237 234 238 243 244 244 245 245 243 240 237 237 238 238 239 239 239 237 235 232 229 228 225 223 222 223 224 225 224 223 223 224 224 225 226 226 225 225 225 225 225 226 226 227 228 230 232 233 233 234 235 235 234 233 233 232 232 231 230 229 229 229 230
236 236 238 243 246 245 243 241 236 233 232 230 227 225 225 225 226 227 229 229 229 234 238 237 236 239 241 241 241 242 241 238 237 239 237 234 234 237 238 240 241 239 235 232 229 226 223 223 224 225 225 226 225 224 224 225 225 226 226 226 226 226 226 226 226 227 228 229 232 233 233 233 234 235 236 235 234 233 233 232 232 231 230 230 230 231
237 238 240 244 245 244 242 240 237 233 232 232 231 227 225 226 227 228 229 229 230 234 237 236 237 241 244 244 243 241 239 238 240 242 239 234 234 236 236 238 241 240 237 233 230 227 224 222 224 226 226 227 227 227 226 227 226 226 227 226 226 227 227 227 227 228 229 231 233 234 234 234 235 235 237 237 236 235 234 233 232 232 231 230 230 231
238 240 241 243 244 242 238 238 240 238 233 232 232 229 226 225 227 229 229 228 229 231 233 235 237 241 244 245 247 246 241 238 238 240 242 242 242 240 238 239 241 239 236 233 230 226 223 223 225 227 227 227 229 229 229 228 227 227 227 227 227 228 228 228 228 229 231 232 233 234 235 235 235 236 237 238 237 236 235 234 233 233 232 232 231 232
236 239 240 242 244 241 238 240 243 239 232 230 230 229 227 226 227 229 230 230 229 229 231 234 237 239 241 241 244 245 241 239 238 238 242 246 248 246 243 244 246 241 235 232 229 225 224 226 228 228 228 229 231 232 232 230 228 227 228 228 228 228 228 229 229 230 231 233 234 234 235 236 236 236 237 238 238 237 236 235 234 234 233 233 232 232
232 236 238 240 241 240 241 244 243 234 228 230 230 228 227 227 226 227 229 231 231 231 234 237 238 239 239 236 238 241 241 239 236 236 240 246 248 248 246 247 249 246 237 232 230 228 228 229 229 228 230 232 233 234 234 232 230 229 229 229 229 228 228 230 230 231 231 233 234 235 236 236 237 238 238 238 237 237 237 236 236 235 234 233 233 233
231 234 236 236 238 240 242 241 237 230 229 232 233 229 228 227 226 227 230 231 232 233 235 237 237 237 235 234 236 239 237 234 232 234 240 245 246 246 245 244 245 245 240 235 233 232 231 230 230 231 235 237 236 235 234 232 231 231 229 229 229 228 230 231 232 233 234 234 235 236 236 236 237 239 238 237 237 237 237 237 237 236 235 234 234 233
228 230 233 234 235 236 236 232 230 232 234 234 233 231 229 226 224 225 229 233 233 232 232 232 234 235 232 232 234 232 228 230 233 237 241 244 244 244 244 243 242 241 239 237 235 233 231 231 233 235 238 238 236 234 233 233 232 231 230 230 229 230 232 234 236 237 237 237 237 238 238 237 238 238 238 237 236 237 237 238 237 237 235 235 234 234
225 227 230 232 232 230 230 231 233 237 238 232 228 229 229 227 225 223 226 232 233 231 230 231 231 231 229 228 228 226 227 233 238 242 244 243 243 243 243 243 243 243 244 242 239 236 234 234 236 239 240 238 235 233 233 233 232 230 230 231 231 233 236 238 239 240 239 239 240 240 240 239 239 238 238 237 237 237 238 238 238 237 236 235 235 234
222 224 226 228 228 226 227 230 231 232 231 228 229 232 233 233 230 223 223 230 233 230 230 230 228 227 226 225 225 225 230 235 239 243 245 244 243 243 243 242 243 244 246 246 244 243 242 240 239 239 240 239 237 236 234 232 231 230 231 233 234 237 238 239 241 241 241 242 242 242 243 242 240 238 238 238 238 238 238 238 238 239 237 236 235 235
220 221 223 225 227 225 224 226 226 225 226 228 232 235 234 235 232 223 222 228 231 230 229 228 226 225 224 224 225 227 231 234 237 241 244 243 241 241 240 241 242 243 244 244 244 245 246 245 242 240 239 239 238 237 234 233 232 232 234 236 238 239 240 241 242 242 243 244 245 245 244 243 241 239 238 238 238 238 238 238 239 239 238 237 236 236
217 217 219 223 226 225 224 225 225 224 226 229 232 234 234 233 226 219 221 227 229 229 228 227 227 227 225 224 226 230 232 233 234 237 239 238 238 237 238 239 240 242 243 244 245 246 246 247 245 244 243 242 240 238 236 235 235 235 237 239 240 241 242 243 244 245 245 246 246 246 244 243 242 240 239 239 238 238 237 238 238 238 238 237 237 236
215 215 216 220 223 223 222 223 225 225 225 228 233 236 235 227 217 216 224 228 227 227 226 224 225 226 224 224 227 230 232 231 230 233 236 236 235 235 237 239 240 242 244 245 248 249 248 248 247 247 247 246 244 241 238 238 239 240 241 242 243 244 245 246 247 247 247 247 246 246 244 243 243 242 240 239 238 237 237 237 238 238 238 238 237 236
213 213 214 216 218 219 219 221 225 224 221 226 235 234 227 218 214 220 227 227 224 223 222 220 220 219 217 218 220 221 224 225 226 229 233 236 236 236 239 240 241 243 245 247 250 252 251 251 251 250 251 251 249 245 243 242 243 244 244 244 245 247 248 248 248 248 248 247 246 246 245 243 242 242 240 239 238 237 237 237 237 238 238 238 237 236
212 212 213 212 212 215 217 218 221 220 219 227 234 225 216 215 218 223 226 224 220 219 216 214 216 214 209 210 212 214 217 222 224 227 229 232 234 236 239 241 242 244 246 248 251 253 253 253 254 254 254 255 254 253 250 247 246 247 247 247 248 249 249 249 249 248 248 248 248 247 246 244 242 241 240 239 238 238 237 237 237 237 237 237 237 236
214 212 212 211 210 211 213 214 215 217 220 225 224 217 216 222 223 222 222 220 216 216 213 210 212 212 207 206 209 212 216 219 222 224 227 230 232 235 238 242 245 247 248 249 251 254 255 254 255 256 257 257 258 258 257 255 253 252 251 251 253 253 251 250 249 249 249 249 249 248 246 245 243 242 241 240 240 240 239 238 237 237 237 236 236 236
213 211 210 211 210 209 210 211 213 216 219 220 219 218 221 225 221 216 217 216 214 214 212 208 208 210 208 206 208 212 216 219 221 224 227 230 233 236 239 243 247 249 251 252 253 255 256 256 257 259 259 259 260 259 258 259 258 257 256 256 257 256 254 253 251 250 250 250 249 248 247 246 245 244 243 241 240 241 241 240 238 237 236 236 235 235
211 211 209 209 209 209 209 210 211 212 215 218 220 220 220 220 216 212 213 213 212 212 211 208 207 209 211 211 211 213 217 219 221 224 228 230 234 238 240 244 249 252 253 254 255 256 257 258 260 261 262 262 262 261 260 260 260 259 260 260 259 258 256 254 254 253 252 252 251 250 249 248 246 245 244 242 241 241 241 241 240 238 236 236 235 234
208 209 208 206 206 207 207 208 209 209 211 216 219 219 218 219 219 214 211 211 211 209 209 209 210 211 213 215 214 215 220 223 225 228 232 236 239 242 245 247 251 254 256 257 258 258 258 259 260 262 263 264 265 264 263 262 262 261 261 261 261 260 258 256 255 255 254 253 253 252 250 249 247 246 245 243 242 241 240 240 240 238 236 235 234 233
207 208 207 206 205 204 204 207 209 209 209 212 214 214 217 221 223 219 213 210 209 208 208 209 212 214 217 219 220 222 226 231 234 236 240 244 247 249 251 253 255 257 259 260 261 261 261 260 261 262 263 264 265 265 265 264 264 264 264 263 263 262 261 259 259 258 257 256 254 253 251 249 247 245 244 243 242 241 240 239 239 239 238 237 235 233
208 208 207 206 205 203 202 205 208 207 207 210 211 210 213 219 222 220 213 207 206 207 209 210 213 218 222 225 226 227 231 236 240 241 243 248 251 254 256 257 258 259 260 261 262 263 263 263 264 265 265 266 267 267 266 266 266 265 265 265 263 263 263 263 263 263 261 259 256 254 252 250 248 247 246 244 242 242 241 240 239 239 239 239 236 232
207 206 206 205 204 203 203 203 204 203 203 207 209 207 209 216 220 219 213 207 205 209 211 213 216 220 224 229 231 232 234 239 243 246 247 250 254 256 258 258 259 260 261 262 263 264 264 265 266 267 268 269 269 269 269 269 268 268 267 266 264 263 264 265 266 265 264 261 259 256 254 252 250 248 247 245 243 242 242 241 240 239 239 239 237 233
204 203 205 205 203 202 202 202 202 201 202 204 204 202 203 209 213 213 211 207 206 209 213 215 218 221 225 230 233 236 238 242 246 249 250 252 255 257 259 260 260 261 262 264 264 265 266 267 268 268 268 269 270 271 271 271 271 271 270 269 267 265 264 265 266 265 264 263 261 259 256 254 252 249 247 244 242 241 241 240 240 239 239 239 238 235